Regional Weather Roundup
Issued by NWS

Home | Current Version | Previous Version | Text Only | Print | Product List | Glossary On
Versions: 1 2 3 4 5 6 7 8 9 10 11 12 13 14 15 16 17 18 19 20 21 22 23 24 25 26 27 28 29 30 31 32 33 34 35 36 37 38 39 40 41 42 43 44 45 46 47 48 49 50
000
ASUS43 KMPX 311610
RWRMN
WEATHER ROUNDUP FOR MINNESOTA
NATIONAL WEATHER SERVICE TWIN CITIES/CHANHASSEN MN
1100 AM CDT TUE MAR 31 2020


NOTE: "FAIR" INDICATES FEW OR NO CLOUDS BELOW 12,000 FEET WITH NO
SIGNIFICANT WEATHER AND/OR OBSTRUCTIONS TO VISIBILITY. N/A MEANS
CURRENT SKY AND/OR WEATHER CONDITIONS ARE NOT AVAILABLE.

MNZ060>063-068>070-311700-
   Twin Cities Metro

CITY           SKY/WX    TMP DP  RH WIND       PRES   REMARKS
TWIN CITIES    FAIR      46  23  40 E10       30.14F
ST PAUL        FAIR      45  25  45 NE12      30.15F
CRYSTAL        FAIR      47  23  38 E10       30.13F
BLAINE         MOSUNNY   45  27  49 E12       30.14F
LAKEVILLE      FAIR      45  28  53 E10       30.13F
EDEN PRAIRIE   FAIR      47  22  37 E10G22    30.12F
SOUTH ST PAUL  FAIR      44  24  45 E10       30.14F
LAKE ELMO      FAIR      45  25  45 NE12      30.15F
$$
MNZ001>005-007-008-013>017-022>024-027-028-311700-
   Northwest Minnesota

CITY           SKY/WX    TMP DP  RH WIND       PRES   REMARKS
BEMIDJI        FAIR      42  27  55 SE13G18   30.12F
HALLOCK        FAIR      43  34  70 S17       30.05F
ROSEAU         FAIR      45  34  65 SE12      30.11S
WARROAD        FAIR      45  32  61 S10       30.12S
THIEF RVR FALL FAIR      41  29  62 SE13      30.10S
CROOKSTON      FAIR      43  30  61 S15       30.08S
FOSSTON        FAIR      43  23  45 SE16      30.09S
DETROIT LAKES  FAIR      45  28  53 SE13      30.10S
MOORHEAD       FAIR      46  28  49 S17       30.08S
PARK RAPIDS    FAIR      42  25  50 SE13      30.11F
MAHNOMEN       FAIR      46  25  44 S10G18    30.09S
$$
MNZ006-009>011-018-025>026-311700-
   North Central Minnesota

CITY           SKY/WX    TMP DP  RH WIND       PRES   REMARKS
BAUDETTE       FAIR      42  26  53 S9        30.14F
FLAG ISLAND      N/A     36  25  64 SE8       30.13F
INTL FALLS     FAIR      41  24  51 SE5       30.16F
BIG FORK       FAIR      43  23  45 SE3       30.20F
LONGVILLE      FAIR      43  23  45 SE7       30.14F
GRAND RAPIDS   FAIR      41  23  48 SE6       30.17F
CRANE LAKE     FAIR      41  18  38 CALM      30.20F
ORR            FAIR      43  19  39 SE3       30.15F
COOK           FAIR      41  19  42 SE6       30.16F
WALKER         FAIR      42  25  52 E8        30.14S
$$
MNZ012-019>021-037-311700-
   Northeast Minnesota

CITY           SKY/WX    TMP DP  RH WIND       PRES   REMARKS
DULUTH         FAIR      34  25  69 E17       30.18S WCI  23
ELY            FAIR      37  19  48 CALM      30.17F
HIBBING        FAIR      40  23  50 SE3       30.16F
EVELETH        FAIR      40  22  47 NE5       30.17F
DULUTH HARBOR  PTSUNNY   36  30  80 NE15      30.22F
TWO HARBORS    FAIR      36  23  60 E10       30.19F
SILVER BAY     FAIR      34  25  69 E9        30.20F WCI  26
GRAND MARAIS     N/A     37  27  67 E5        30.23F
G MARAIS ARPRT FAIR      37  21  52 E8        30.17F
$$
MNZ029>031-032-039>041-046>048-054>057-064-311700-
   West Central Minnesota

CITY           SKY/WX    TMP DP  RH WIND       PRES   REMARKS
FERGUS FALLS   FAIR      46  28  49 S21       30.10S
WHEATON        FAIR      41  30  65 SE16      30.11R
MORRIS         FAIR      45  30  57 SE16      30.11S
ALEXANDRIA     FAIR      45  27  49 SE16      30.12S
ELBOW LAKE     FAIR      46  30  52 SE18      30.10F
WADENA         FAIR      45  27  49 SE14      30.11S
GLENWOOD       FAIR      45  28  53 SE16      30.12S
APPLETON       FAIR      43  32  65 SE12      30.10F
BENSON         FAIR      43  32  65 S12       30.12F
ORTONVILLE     FAIR      41  32  70 SE15      30.08S
MADISON        FAIR      46  36  66 SE14      30.09S
WILLMAR        FAIR      46  30  53 SE15      30.15S
$$
MNZ033>034-036-042>043-049>051-058-059-311700-
   Central Minnesota

CITY           SKY/WX    TMP DP  RH WIND       PRES   REMARKS
ST CLOUD       FAIR      44  26  49 E6        30.14F
SAUK CENTRE      N/A     44  27  50 SE14      30.13F
PAYNESVILLE    FAIR      44  31  58 SE13      30.14S
AITKIN         FAIR      41  25  52 NE8       30.14F
PINE RIVER     FAIR      41  25  52 SE10      30.17F
BRAINERD       FAIR      45  23  42 SE9       30.14F
LONG PRAIRIE   FAIR      43  28  56 SE10      30.14S
LITTLE FALLS   FAIR      43  27  52 SE10      30.15F
LITCHFIELD       N/A     46  30  53 SE10      30.14F
BUFFALO        FAIR      45  27  49 MISG      30.15F
MAPLE LAKE       N/A     46  30  54 E7        30.15F
HUTCHINSON     FAIR      46  33  60 SE9       30.14F
$$
MNZ037-044-045-052-053-311700-
   East Central Minnesota

CITY           SKY/WX    TMP DP  RH WIND       PRES   REMARKS
PRINCETON      FAIR      46  25  42 E5        30.15S
MORA           FAIR      43  28  56 E7        30.16F
CAMBRIDGE      FAIR      45  27  49 NE8       30.15F
RUSH CITY      FAIR      42  25  50 NE8       30.16F
MOOSE LAKE     FAIR      37  28  70 E7        30.16S
CLOQUET        FAIR      34  27  75 E10       30.18S WCI  26
$$
MNZ071>073-080-081-089-090-097-098-311700-
   Southwest Minnesota

CITY           SKY/WX    TMP DP  RH WIND       PRES   REMARKS
MONTEVIDEO     FAIR      45  30  57 S13       30.11S
GRANITE FALLS  FAIR      46  35  64 SE13      30.12F
CANBY          PTSUNNY   43  34  70 E9        30.09F
MARSHALL       FAIR      43  34  70 SE10      30.10F
REDWOOD FALLS  FAIR      45  31  58 SE13      30.11F
OLIVIA         FAIR      43  34  70 SE12G17   30.12S
PIPESTONE        N/A     43  34  70 SE13      30.05S
WINDOM         FAIR      46  34  61 E10       30.09F
WORTHINGTON    FAIR      42  34  73 SE9       30.08F
JACKSON        FAIR      45  32  61 SE8       30.10F
TRACY          FAIR      46  36  66 S9        30.09F
SLAYTON        FAIR      42  33  73 SE13      30.09F
$$
MNZ065>067-074>077-082>085-091>093-311700-
   South Central Minnesota

CITY           SKY/WX    TMP DP  RH WIND       PRES   REMARKS
MANKATO        FAIR      45  29  53 E9        30.13F
NEW ULM        FAIR      45  28  53 E13       30.12F
ST JAMES         N/A     43  34  70 E8        30.12S
FAIRMONT       FAIR      43  33  68 E7        30.12S
GLENCOE        FAIR      44  20  39 E9        30.13F
FARIBAULT        N/A     45  30  57 E6        30.12F
OWATONNA         N/A     43  30  61 E9        30.12F
WASECA         FAIR      43  30  61 E8        30.13F
ALBERT LEA     FAIR      43  30  61 NE6       30.10F
$$
MNZ078>079-086>088-094>096-311700-
   Southeast Minnesota

CITY           SKY/WX    TMP DP  RH WIND       PRES   REMARKS
ROCHESTER      FAIR      43  28  55 NE8       30.11F
RED WING       FAIR      45  25  45 NE8       30.13F
STANTON        FAIR      44  27  50 E6        30.12F
DODGE CENTER   FAIR      41  27  56 NE10      30.11F
WINONA         FAIR      43  30  61 E5        30.13F
AUSTIN         FAIR      45  34  65 NE6       30.10F
PRESTON        FAIR      40  28  60 NE6       30.10F
$$
ABBREVIATIONS USED IN REMARKS
   TC - TEMPERATURES IN CELSIUS
  WCI - WIND CHILL INDEX
   HX - HEAT INDEX
  VSB - VISIBILITY
$$



USA.gov is the U.S. government's official web portal to all federal, state and local government web resources and services.